| time (UTC) | temp C | wind direction | speed KPH | gust KPH | rain 1hr cm | rain 24hr cm | rain mn cm | humidity % | barometer mb |
| 20260502193911 | 16 | 90 | 0.0 | 1.6 | 0.00 | 0.00 | 0.00 | 35 | 1033.3 |
| 20260502192911 | 15 | 90 | 1.6 | 4.8 | 0.00 | 0.00 | 0.00 | 35 | 1033.4 |
| 20260502191914 | 16 | 65 | 3.2 | 6.4 | 0.00 | 0.00 | 0.00 | 34 | 1033.6 |
| 20260502190912 | 16 | 90 | 1.6 | 4.8 | 0.00 | 0.00 | 0.00 | 32 | 1033.8 |
| 20260502184912 | 16 | 96 | 1.6 | 4.8 | 0.00 | 0.00 | 0.00 | 36 | 1034.2 |
| 20260502183913 | 17 | 96 | 0.0 | 4.8 | 0.00 | 0.00 | 0.00 | 32 | 1034.1 |
| 20260502183815 | 17 | 92 | 3.2 | 4.8 | 0.00 | 0.00 | 0.00 | 33 | 1034.2 |
| 20260502182913 | 16 | 136 | 0.0 | 0.0 | 0.00 | 0.00 | 0.00 | 33 | 1034.3 |
| 20260502180913 | 16 | 67 | 1.6 | 3.2 | 0.00 | 0.00 | 0.00 | 35 | 1034.3 |
| 20260502163913 | 15 | 93 | 1.6 | 4.8 | 0.00 | 0.00 | 0.00 | 40 | 1035.0 |
| 20260502162911 | 14 | 90 | 0.0 | 0.0 | 0.00 | 0.00 | 0.00 | 44 | 1035.1 |
| 20260502160912 | 13 | 45 | 0.0 | 3.2 | 0.00 | 0.00 | 0.00 | 44 | 1035.5 |
| 20260502152013 | 13 | 115 | 0.0 | 1.6 | 0.00 | 0.00 | 0.00 | 52 | 1035.4 |
| 20260502130513 | 11 | 180 | 0.0 | 1.6 | 0.00 | 0.03 | 0.00 | 69 | 1035.4 |
| 20260502123512 | 11 | 202 | 0.0 | 1.6 | 0.00 | 0.03 | 0.00 | 74 | 1035.2 |
| 20260502123413 | 11 | 187 | 0.0 | 1.6 | 0.00 | 0.03 | 0.00 | 74 | 1035.2 |
| 20260502122512 | 11 | 179 | 0.0 | 1.6 | 0.00 | 0.03 | 0.00 | 76 | 1035.1 |
| 20260502121513 | 10 | 135 | 0.0 | 0.0 | 0.00 | 0.03 | 0.00 | 76 | 1035.1 |
| 20260502120514 | 10 | 135 | 0.0 | 1.6 | 0.00 | 0.03 | 0.00 | 77 | 1034.9 |
| 20260502115513 | 10 | 194 | 0.0 | 6.4 | 0.00 | 0.03 | 0.00 | 77 | 1034.8 |
| 20260502114612 | 10 | 135 | 0.0 | 3.2 | 0.00 | 0.03 | 0.00 | 79 | 1034.9 |
| 20260502113512 | 10 | 135 | 0.0 | 0.0 | 0.00 | 0.03 | 0.00 | 80 | 1034.8 |
| 20260502105611 | 8 | 45 | 0.0 | 0.0 | 0.00 | 0.03 | 0.00 | 86 | 1034.4 |
| 20260502104611 | 8 | 45 | 0.0 | 0.0 | 0.00 | 0.03 | 0.00 | 85 | 1034.2 |
| 20260502103611 | 8 | 45 | 0.0 | 0.0 | 0.00 | 0.03 | 0.00 | 82 | 1033.9 |
| 20260502103511 | 8 | 45 | 0.0 | 0.0 | 0.00 | 0.03 | 0.00 | 83 | 1034.0 |
| 20260502101414 | 8 | 360 | 0.0 | 0.0 | 0.00 | 0.03 | 0.00 | 83 | 1034.1 |
| 20260502100511 | 8 | 360 | 0.0 | 0.0 | 0.00 | 0.03 | 0.00 | 81 | 1033.9 |
| 20260502091112 | 10 | 360 | 0.0 | 0.0 | 0.00 | 0.03 | 0.00 | 80 | 1033.9 |
| 20260502090110 | 10 | 360 | 0.0 | 0.0 | 0.00 | 0.03 | 0.00 | 79 | 1033.9 |
| 20260502071014 | 10 | 315 | 0.0 | 0.0 | 0.00 | 0.03 | 0.00 | 80 | 1034.1 |
| 20260502070111 | 10 | 315 | 0.0 | 0.0 | 0.00 | 0.03 | 0.00 | 79 | 1034.1 |
| 20260502065112 | 10 | 315 | 0.0 | 0.0 | 0.00 | 0.03 | 0.00 | 77 | 1034.1 |
| 20260502064113 | 10 | 315 | 0.0 | 0.0 | 0.00 | 0.03 | 0.00 | 75 | 1034.0 |
| 20260502063112 | 10 | 315 | 0.0 | 0.0 | 0.00 | 0.03 | 0.00 | 74 | 1034.0 |
| 20260502062112 | 10 | 315 | 0.0 | 0.0 | 0.00 | 0.03 | 0.00 | 74 | 1034.1 |
| 20260502061113 | 10 | 315 | 0.0 | 0.0 | 0.00 | 0.03 | 0.00 | 72 | 1034.1 |
| 20260502061013 | 10 | 315 | 0.0 | 0.0 | 0.00 | 0.03 | 0.00 | 73 | 1034.1 |
| 20260502060111 | 11 | 315 | 0.0 | 0.0 | 0.00 | 0.03 | 0.00 | 71 | 1034.1 |
| 20260502060013 | 11 | 315 | 0.0 | 0.0 | 0.00 | 0.03 | 0.00 | 72 | 1034.1 |
| 20260502055012 | 11 | 315 | 0.0 | 0.0 | 0.00 | 0.03 | 0.00 | 72 | 1034.3 |
| 20260502054110 | 11 | 315 | 0.0 | 0.0 | 0.00 | 0.03 | 0.00 | 71 | 1034.5 |
| 20260502053111 | 11 | 315 | 0.0 | 0.0 | 0.00 | 0.03 | 0.00 | 72 | 1034.6 |
| 20260502053012 | 11 | 315 | 0.0 | 0.0 | 0.00 | 0.03 | 0.00 | 72 | 1034.7 |
| 20260502052014 | 11 | 315 | 0.0 | 0.0 | 0.00 | 0.03 | 0.00 | 72 | 1034.6 |
| 20260502051013 | 11 | 315 | 0.0 | 1.6 | 0.00 | 0.03 | 0.00 | 71 | 1034.4 |
| 20260502050012 | 11 | 315 | 0.0 | 0.0 | 0.00 | 0.03 | 0.00 | 72 | 1034.4 |
| 20260502045014 | 11 | 315 | 0.0 | 0.0 | 0.00 | 0.03 | 0.00 | 71 | 1034.4 |
| 20260502044011 | 11 | 315 | 0.0 | 0.0 | 0.00 | 0.03 | 0.00 | 70 | 1034.5 |
| 20260502042012 | 11 | 315 | 0.0 | 0.0 | 0.00 | 0.03 | 0.00 | 70 | 1034.3 |
| 20260502041013 | 11 | 315 | 0.0 | 0.0 | 0.00 | 0.03 | 0.00 | 71 | 1034.1 |
| 20260502035018 | 11 | 315 | 0.0 | 0.0 | 0.00 | 0.03 | 0.03 | 69 | 1034.0 |
| 20260502034919 | 11 | 315 | 0.0 | 0.0 | 0.00 | 0.03 | 0.03 | 69 | 1033.9 |
| 20260502032921 | 11 | 315 | 0.0 | 0.0 | 0.00 | 0.03 | 0.03 | 67 | 1033.9 |
| 20260502032018 | 11 | 315 | 0.0 | 0.0 | 0.00 | 0.03 | 0.03 | 66 | 1034.0 |
| 20260502030919 | 11 | 315 | 0.0 | 0.0 | 0.00 | 0.03 | 0.03 | 64 | 1033.9 |
| 20260502025920 | 11 | 315 | 0.0 | 0.0 | 0.00 | 0.03 | 0.03 | 64 | 1034.2 |
| 20260502025017 | 11 | 315 | 0.0 | 0.0 | 0.00 | 0.03 | 0.03 | 64 | 1034.3 |
| 20260502024019 | 11 | 315 | 0.0 | 0.0 | 0.00 | 0.03 | 0.03 | 65 | 1034.3 |
| 20260502023019 | 11 | 315 | 0.0 | 0.0 | 0.00 | 0.03 | 0.03 | 63 | 1034.3 |
| 20260502022018 | 11 | 315 | 0.0 | 0.0 | 0.00 | 0.03 | 0.03 | 64 | 1034.5 |
| 20260502021019 | 11 | 315 | 0.0 | 0.0 | 0.00 | 0.03 | 0.03 | 64 | 1034.4 |
| 20260502020018 | 10 | 315 | 0.0 | 0.0 | 0.00 | 0.03 | 0.03 | 65 | 1034.2 |
| 20260502015018 | 10 | 315 | 0.0 | 0.0 | 0.00 | 0.03 | 0.03 | 64 | 1034.2 |
| 20260502013019 | 10 | 247 | 0.0 | 0.0 | 0.00 | 0.03 | 0.03 | 62 | 1034.0 |
| 20260502012919 | 10 | 247 | 0.0 | 0.0 | 0.00 | 0.03 | 0.03 | 62 | 1034.1 |
| 20260502012018 | 10 | 247 | 0.0 | 0.0 | 0.00 | 0.03 | 0.03 | 61 | 1034.0 |
| 20260502010918 | 11 | 247 | 0.0 | 0.0 | 0.00 | 0.03 | 0.03 | 59 | 1033.8 |
| 20260502010819 | 11 | 247 | 0.0 | 0.0 | 0.00 | 0.03 | 0.03 | 60 | 1033.8 |
| 20260502004919 | 11 | 247 | 0.0 | 0.0 | 0.00 | 0.03 | 0.03 | 55 | 1033.9 |
| 20260502004819 | 11 | 247 | 0.0 | 0.0 | 0.00 | 0.03 | 0.03 | 55 | 1033.8 |
| 20260502003818 | 12 | 247 | 0.0 | 0.0 | 0.00 | 0.03 | 0.03 | 56 | 1033.6 |
| 20260502001917 | 13 | 247 | 0.0 | 0.0 | 0.00 | 0.03 | 0.03 | 50 | 1033.5 |
| 20260502000917 | 13 | 247 | 0.0 | 0.0 | 0.00 | 0.03 | 0.03 | 47 | 1033.6 |
| 20260501235918 | 14 | 247 | 0.0 | 0.0 | 0.00 | 0.03 | 0.03 | 46 | 1033.4 |
| 20260501234920 | 15 | 247 | 0.0 | 0.0 | 0.00 | 0.03 | 0.03 | 43 | 1033.3 |
| 20260501234017 | 15 | 247 | 0.0 | 0.0 | 0.00 | 0.03 | 0.03 | 42 | 1033.0 |
| 20260501233919 | 15 | 247 | 0.0 | 0.0 | 0.00 | 0.03 | 0.03 | 42 | 1033.0 |
| 20260501233017 | 15 | 289 | 1.6 | 4.8 | 0.00 | 0.03 | 0.03 | 41 | 1033.0 |
| 20260501231020 | 15 | 45 | 0.0 | 0.0 | 0.00 | 0.03 | 0.03 | 40 | 1032.9 |
| 20260501230019 | 15 | 315 | 0.0 | 0.0 | 0.00 | 0.03 | 0.03 | 39 | 1032.8 |
| 20260501225117 | 16 | 315 | 0.0 | 1.6 | 0.00 | 0.03 | 0.03 | 41 | 1032.9 |
| 20260501224117 | 16 | 9 | 0.0 | 3.2 | 0.00 | 0.03 | 0.03 | 41 | 1032.9 |
| 20260501224034 | 16 | 39 | 0.0 | 3.2 | 0.00 | 0.03 | 0.03 | 40 | 1033.0 |
| 20260501223119 | 16 | 225 | 0.0 | 0.0 | 0.00 | 0.03 | 0.03 | 42 | 1033.1 |
| 20260501222118 | 16 | 315 | 0.0 | 0.0 | 0.00 | 0.03 | 0.03 | 40 | 1033.0 |
| 20260501221119 | 16 | 360 | 0.0 | 3.2 | 0.00 | 0.03 | 0.03 | 40 | 1033.0 |
| 20260501220119 | 17 | 180 | 0.0 | 0.0 | 0.00 | 0.03 | 0.03 | 37 | 1033.0 |
| 20260501215218 | 17 | 202 | 0.0 | 0.0 | 0.00 | 0.03 | 0.03 | 36 | 1033.1 |
| 20260501214219 | 17 | 174 | 0.0 | 0.0 | 0.00 | 0.03 | 0.03 | 36 | 1033.0 |
| 20260501213317 | 17 | 180 | 0.0 | 0.0 | 0.00 | 0.03 | 0.03 | 36 | 1033.1 |
| 20260501212320 | 17 | 104 | 0.0 | 3.2 | 0.00 | 0.03 | 0.03 | 35 | 1033.2 |
| 20260501211418 | 17 | 135 | 0.0 | 0.0 | 0.00 | 0.03 | 0.03 | 35 | 1033.2 |
| 20260501205418 | 18 | 110 | 0.0 | 3.2 | 0.00 | 0.03 | 0.03 | 33 | 1032.8 |
| 20260501203419 | 21 | 135 | 0.0 | 0.0 | 0.00 | 0.03 | 0.03 | 30 | 1032.8 |
| 20260501202518 | 21 | 125 | 0.0 | 3.2 | 0.00 | 0.03 | 0.03 | 30 | 1033.0 |
| 20260501201518 | 21 | 225 | 0.0 | 0.0 | 0.00 | 0.03 | 0.03 | 29 | 1032.9 |
| 20260501200517 | 21 | 22 | 0.0 | 0.0 | 0.00 | 0.03 | 0.03 | 28 | 1033.0 |
| 20260501195520 | 21 | 66 | 0.0 | 1.6 | 0.00 | 0.03 | 0.03 | 29 | 1033.1 |
| 20260501194617 | 21 | 135 | 0.0 | 0.0 | 0.00 | 0.03 | 0.03 | 30 | 1033.0 |